DW3224 Coupeville WA US current weather conditions

sailwx.info

Wind from 321 at 18 knots gusting 26

Air temperature 11.1° C
Dewpoint 9.9° C

Last reported at 2019-Jun-16 04:10 UTC.
Time now 2019-Jun-16 05:01 UTC

Location: N 48°12' W 122°44'.
View on Google Maps.

See reports from other nearby stations

  
Tides and Currents Weather Stations Pressure Air Temp Water Temp Dewpoint Dewpoint Depression Visibility Wind Speed Wind Dir Waves Ship Positions
date/time (UTC)wind fromknots sea level pressurealtimeterstation pressurevisibilityair tempwater tempwave heightnotes
2019-Jun-16 04:10 321 18 gusting 26 11.1
2019-Jun-16 04:05 322 18 gusting 24 11.1
2019-Jun-16 04:00 322 17 gusting 23 11.1
2019-Jun-16 03:55 326 16 gusting 23 11.1
2019-Jun-16 03:50 329 15 gusting 21 11.1
2019-Jun-16 03:45 330 14 gusting 19 11.1
2019-Jun-16 03:40 333 13 gusting 17 11.1
2019-Jun-16 03:35 336 12 gusting 16 11.1
2019-Jun-16 03:30 337 11 gusting 15 11.7
2019-Jun-16 03:25 338 10 gusting 13 11.7
2019-Jun-16 03:20 337 9 gusting 13 11.7
2019-Jun-16 03:15 336 9 gusting 13 11.7
2019-Jun-16 03:10 335 9 gusting 13 12.2
2019-Jun-16 03:05 335 8 gusting 13 12.2
2019-Jun-16 03:00 336 8 gusting 11 12.2
2019-Jun-16 02:55 336 9 gusting 11 12.2
2019-Jun-16 02:50 337 9 gusting 12 12.2
2019-Jun-16 02:45 338 9 gusting 12 12.2
2019-Jun-16 02:40 337 9 gusting 13 12.8
2019-Jun-16 02:35 337 10 gusting 13 12.8
2019-Jun-16 02:30 336 10 gusting 13 12.8
2019-Jun-16 02:25 336 10 gusting 13 12.8
2019-Jun-16 02:20 334 10 gusting 13 12.2
2019-Jun-16 02:15 333 10 gusting 13 12.8
2019-Jun-16 02:10 335 11 gusting 13 12.8
2019-Jun-16 02:05 333 11 gusting 13 12.8
2019-Jun-16 02:00 333 11 gusting 15 12.8
2019-Jun-16 01:55 334 11 gusting 15 12.8
2019-Jun-16 01:50 334 11 gusting 13 12.8
2019-Jun-16 01:45 333 10 gusting 13 12.8
2019-Jun-16 01:40 333 10 gusting 13 12.8
2019-Jun-16 01:35 332 10 gusting 13 12.8
2019-Jun-16 01:30 331 10 gusting 13 12.8
2019-Jun-16 01:25 335 9 gusting 13 12.8
2019-Jun-16 01:20 334 9 gusting 12 12.8
2019-Jun-16 01:15 334 9 gusting 12 12.8
2019-Jun-16 01:10 336 9 gusting 12 13.3
2019-Jun-16 01:05 336 9 gusting 12 13.3
2019-Jun-16 01:00 337 9 gusting 13 12.8
2019-Jun-16 00:55 337 9 gusting 13 13.3
2019-Jun-16 00:50 336 9 gusting 11 13.3
2019-Jun-16 00:45 334 9 gusting 11 13.3
2019-Jun-16 00:40 332 9 gusting 12 13.3
2019-Jun-16 00:35 332 10 gusting 12 13.3
2019-Jun-16 00:30 335 10 gusting 12 13.9
2019-Jun-16 00:25 336 10 gusting 13 13.3
2019-Jun-16 00:20 335 10 gusting 13 13.3
2019-Jun-16 00:15 334 10 gusting 13 13.9
2019-Jun-16 00:10 334 10 gusting 13 13.3
2019-Jun-16 00:05 332 10 gusting 13 13.3
2019-Jun-16 00:00 334 10 gusting 13 13.3
2019-Jun-15 23:55 335 9 gusting 12 13.3
2019-Jun-15 23:50 333 9 gusting 12 13.3
2019-Jun-15 23:45 332 9 gusting 13 13.3
2019-Jun-15 23:40 332 9 gusting 13 13.9
2019-Jun-15 23:35 332 9 gusting 11 13.9
2019-Jun-15 23:30 328 9 gusting 11 13.9
2019-Jun-15 23:25 327 9 gusting 13 14.4
2019-Jun-15 23:20 329 9 gusting 13 14.4
2019-Jun-15 23:15 328 8 gusting 11 13.9
2019-Jun-15 23:10 328 7 gusting 10 13.9
2019-Jun-15 23:05 329 7 gusting 10 13.9
2019-Jun-15 23:00 331 7 gusting 9 13.3
2019-Jun-15 22:55 330 7 gusting 9 13.3
2019-Jun-15 22:50 328 6 gusting 8 13.3
2019-Jun-15 22:45 327 6 gusting 8 13.3
2019-Jun-15 22:40 325 6 gusting 8 13.9
2019-Jun-15 22:35 325 6 gusting 7 13.9
2019-Jun-15 22:30 327 6 gusting 7 13.9
2019-Jun-15 22:25 328 6 gusting 8 13.9
2019-Jun-15 22:20 325 6 gusting 8 13.9
2019-Jun-15 22:15 325 5 gusting 7 13.9
2019-Jun-15 22:10 325 6 gusting 7 13.9
2019-Jun-15 22:05 325 6 gusting 7 13.9
2019-Jun-15 22:00 324 6 gusting 7 13.9
2019-Jun-15 21:55 326 5 gusting 9 13.9
2019-Jun-15 21:50 328 5 gusting 9 13.9
2019-Jun-15 21:45 329 5 gusting 7 13.9
2019-Jun-15 21:40 329 6 gusting 8 13.9
2019-Jun-15 21:35 326 5 gusting 8 13.3
2019-Jun-15 21:30 324 5 gusting 7 13.9
2019-Jun-15 21:25 325 4 gusting 6 13.9
2019-Jun-15 21:20 327 5 gusting 7 13.9
2019-Jun-15 21:15 325 5 gusting 7 13.9
2019-Jun-15 21:10 325 5 gusting 7 13.3
2019-Jun-15 21:05 331 5 gusting 7 13.3
2019-Jun-15 21:00 335 5 gusting 6 13.3
2019-Jun-15 20:55 328 5 gusting 6 13.3
2019-Jun-15 20:50 323 5 gusting 7 13.3
2019-Jun-15 20:45 322 5 gusting 7 13.3
2019-Jun-15 20:40 322 4 gusting 6 13.3
2019-Jun-15 20:35 323 4 gusting 6 13.3
2019-Jun-15 20:30 324 4 gusting 6 13.3
2019-Jun-15 20:25 324 5 gusting 6 13.3
2019-Jun-15 20:20 322 4 gusting 6 13.3
2019-Jun-15 20:15 322 5 gusting 6 13.3
2019-Jun-15 20:10 326 5 gusting 6 12.8
2019-Jun-15 20:05 328 5 gusting 7 13.3
2019-Jun-15 20:00 328 5 gusting 7 13.3
2019-Jun-15 19:55 328 5 gusting 7 13.3
2019-Jun-15 19:50 323 4 gusting 7 13.3
2019-Jun-15 19:45 317 4 gusting 6 13.3
2019-Jun-15 19:40 316 4 gusting 6 13.3
2019-Jun-15 19:35 315 4 gusting 6 13.3
2019-Jun-15 19:30 315 4 gusting 6 12.8
2019-Jun-15 19:25 314 5 gusting 6 12.8
2019-Jun-15 19:20 314 5 gusting 6 12.8
2019-Jun-15 19:15 314 5 gusting 6 12.8
2019-Jun-15 19:10 313 4 gusting 6 12.8
2019-Jun-15 19:05 315 4 gusting 6 13.3
2019-Jun-15 19:00 316 5 gusting 6 13.3
2019-Jun-15 18:55 316 5 gusting 6 13.3
2019-Jun-15 18:50 317 5 gusting 6 13.3
2019-Jun-15 18:45 318 6 gusting 7 13.3
2019-Jun-15 18:40 319 6 gusting 8 12.8
2019-Jun-15 18:35 320 6 gusting 8 13.3
2019-Jun-15 18:30 323 7 gusting 9 13.3
2019-Jun-15 18:25 329 7 gusting 9 12.8
2019-Jun-15 18:20 332 7 gusting 9 12.8
2019-Jun-15 18:15 331 6 gusting 9 12.8
2019-Jun-15 18:10 327 7 gusting 9 12.2
2019-Jun-15 18:05 317 6 gusting 9 12.8
2019-Jun-15 18:00 308 6 gusting 8 12.8
2019-Jun-15 17:55 314 6 gusting 10 12.8
2019-Jun-15 17:50 313 6 gusting 10 12.8
2019-Jun-15 17:45 310 6 gusting 10 12.8
2019-Jun-15 17:40 315 6 gusting 11 12.8
2019-Jun-15 17:35 314 7 gusting 11 12.8
2019-Jun-15 17:30 310 6 gusting 10 12.8
2019-Jun-15 17:25 311 6 gusting 10 12.2
2019-Jun-15 17:20 310 6 gusting 10 12.2
2019-Jun-15 17:15 305 6 gusting 10 12.2
2019-Jun-15 17:10 303 6 gusting 10 12.2
2019-Jun-15 17:05 306 6 gusting 10 12.2
2019-Jun-15 17:00 306 6 gusting 10 12.2
2019-Jun-15 16:55 305 6 gusting 11 12.2
2019-Jun-15 16:50 304 6 gusting 11 12.2
2019-Jun-15 16:45 305 6 gusting 10 11.7
2019-Jun-15 16:40 304 6 gusting 12 11.7
2019-Jun-15 16:35 307 6 gusting 12 11.7
2019-Jun-15 16:30 310 6 gusting 10 11.7
2019-Jun-15 16:25 310 7 gusting 10 11.7
2019-Jun-15 16:20 312 8 gusting 12 11.7
2019-Jun-15 16:15 312 8 gusting 12 11.7
2019-Jun-15 16:10 309 7 gusting 11 11.7
2019-Jun-15 16:05 309 7 gusting 11 11.1
2019-Jun-15 16:00 313 7 gusting 11 11.1
2019-Jun-15 15:55 310 6 gusting 11 11.1
2019-Jun-15 15:50 308 6 gusting 11 11.1
2019-Jun-15 15:45 309 6 gusting 11 11.1
2019-Jun-15 15:40 309 6 gusting 11 11.1
2019-Jun-15 15:35 310 7 gusting 11 11.1
2019-Jun-15 15:30 310 7 gusting 12 11.1
2019-Jun-15 15:25 307 7 gusting 12 11.1
2019-Jun-15 15:20 308 7 gusting 12 11.1
2019-Jun-15 15:15 308 8 gusting 12 11.1
2019-Jun-15 15:10 305 7 gusting 11 11.1
2019-Jun-15 15:05 305 7 gusting 13 11.1
2019-Jun-15 15:00 304 7 gusting 13 11.1
2019-Jun-15 14:55 307 8 gusting 13 10.6
2019-Jun-15 14:50 309 8 gusting 13 10.6
2019-Jun-15 14:45 307 7 gusting 12 10.6
2019-Jun-15 14:40 309 7 gusting 12 10.6
2019-Jun-15 14:35 311 7 gusting 12 10.6
2019-Jun-15 14:30 312 8 gusting 13 10.6
2019-Jun-15 14:25 312 8 gusting 13 10.6
2019-Jun-15 14:20 315 8 gusting 12 10.6
2019-Jun-15 14:15 318 8 gusting 13 10.6
2019-Jun-15 14:10 314 7 gusting 13 10.6
2019-Jun-15 14:05 309 6 gusting 12 10.6
2019-Jun-15 14:00 306 7 gusting 12 10.6
2019-Jun-15 13:55 307 7 gusting 13 10.6
2019-Jun-15 13:50 316 7 gusting 13 10.6
2019-Jun-15 13:45 320 6 gusting 10 10.6
2019-Jun-15 13:40 319 6 gusting 8 10.6
2019-Jun-15 13:35 320 6 gusting 7 10.6
2019-Jun-15 13:30 324 6 gusting 7 10.6
2019-Jun-15 13:25 325 5 gusting 7 10.6
2019-Jun-15 13:20 325 5 gusting 7 10.6
2019-Jun-15 13:15 324 5 gusting 9 10.6
2019-Jun-15 13:10 327 6 gusting 9 10.6
2019-Jun-15 13:05 330 6 gusting 8 10.6
2019-Jun-15 13:00 328 6 gusting 8 10.6
2019-Jun-15 12:55 328 5 gusting 7 10.6
2019-Jun-15 12:50 329 6 gusting 8 10.6
2019-Jun-15 12:45 328 6 gusting 8 10.6
2019-Jun-15 12:40 326 7 gusting 10 10.6
2019-Jun-15 12:35 323 7 gusting 10 10.6
2019-Jun-15 12:30 321 7 gusting 10 10.6
2019-Jun-15 12:25 321 7 gusting 10 10.6
2019-Jun-15 12:20 318 7 gusting 9 10.6
2019-Jun-15 12:15 316 8 gusting 12 10.6
2019-Jun-15 12:10 320 9 gusting 13 10.6
2019-Jun-15 12:05 322 9 gusting 13 10.6
2019-Jun-15 12:00 319 9 gusting 13 10.6
2019-Jun-15 11:55 321 9 gusting 13 10.6
2019-Jun-15 11:50 321 10 gusting 13 10.6
2019-Jun-15 11:45 319 10 gusting 13 10.6
2019-Jun-15 11:40 320 10 gusting 13 10.6
2019-Jun-15 11:35 316 10 gusting 13 10.6
2019-Jun-15 11:30 315 10 gusting 13 10.6
2019-Jun-15 11:25 316 10 gusting 13 10.6
2019-Jun-15 11:20 313 9 gusting 13 10.6
2019-Jun-15 11:15 310 9 gusting 15 10.6
2019-Jun-15 11:10 309 9 gusting 15 10.6
2019-Jun-15 11:05 308 9 gusting 13 10.6
2019-Jun-15 11:00 311 10 gusting 13 10.6
2019-Jun-15 10:55 317 10 gusting 15 10.6
2019-Jun-15 10:50 320 11 gusting 16 10.6
2019-Jun-15 10:45 318 11 gusting 16 10.6
2019-Jun-15 10:40 319 10 gusting 13 10.6
2019-Jun-15 10:35 323 11 gusting 13 10.6
2019-Jun-15 10:30 322 11 gusting 13 10.6
2019-Jun-15 10:25 322 10 gusting 13 10.6
2019-Jun-15 10:20 322 10 gusting 16 10.6
2019-Jun-15 10:15 320 9 gusting 16 10.6
2019-Jun-15 10:10 326 10 gusting 13 10.6
2019-Jun-15 10:05 329 10 gusting 13 10.6
2019-Jun-15 10:00 328 9 gusting 13 10.6
2019-Jun-15 09:55 331 8 gusting 11 10.6
2019-Jun-15 09:50 333 8 gusting 11 10.6
2019-Jun-15 09:45 329 9 gusting 11 10.6
2019-Jun-15 09:40 323 9 gusting 13 10.6
2019-Jun-15 09:35 323 10 gusting 13 10.6
2019-Jun-15 09:30 329 9 gusting 13 10.6
2019-Jun-15 09:25 332 8 gusting 11 10.6
2019-Jun-15 09:20 333 8 gusting 11 10.6
2019-Jun-15 09:15 333 9 gusting 12 10.6
2019-Jun-15 09:10 334 9 gusting 12 10.6
2019-Jun-15 09:05 336 9 gusting 11 10.6
2019-Jun-15 09:00 337 9 gusting 11 10.6
2019-Jun-15 08:55 338 9 gusting 11 10.6
2019-Jun-15 08:50 335 9 gusting 12 10.6
2019-Jun-15 08:45 333 10 gusting 13 10.6
2019-Jun-15 08:40 328 10 gusting 13 10.6
2019-Jun-15 08:35 326 11 gusting 15 10.6
2019-Jun-15 08:30 326 11 gusting 15 10.6
2019-Jun-15 08:25 328 12 gusting 15 10.6
2019-Jun-15 08:20 329 12 gusting 15 10.6
2019-Jun-15 08:15 325 12 gusting 15 10.6
2019-Jun-15 08:10 328 12 gusting 16 10.6
2019-Jun-15 08:05 328 13 gusting 16 10.6
2019-Jun-15 08:00 323 12 gusting 17 10.6
2019-Jun-15 07:55 321 11 gusting 17 10.6
2019-Jun-15 07:50 322 11 gusting 13 10.6
2019-Jun-15 07:45 325 11 gusting 13 10.6
2019-Jun-15 07:40 325 10 gusting 13 10.6
2019-Jun-15 07:35 323 10 gusting 13 10.6
2019-Jun-15 07:30 321 10 gusting 13 10.6
2019-Jun-15 07:25 320 10 gusting 13 10.6
2019-Jun-15 07:20 319 10 gusting 13 10.6
2019-Jun-15 07:15 315 10 gusting 13 10.6
2019-Jun-15 07:10 312 9 gusting 13 10.6
2019-Jun-15 07:05 310 9 gusting 13 10.6
2019-Jun-15 07:00 311 9 gusting 13 10.6
2019-Jun-15 06:55 315 9 gusting 13 10.6
2019-Jun-15 06:50 316 10 gusting 13 10.6
2019-Jun-15 06:45 317 10 gusting 13 10.6
2019-Jun-15 06:40 319 10 gusting 13 10.6
2019-Jun-15 06:35 321 9 gusting 13 10.6
2019-Jun-15 06:30 324 9 gusting 13 10.6
2019-Jun-15 06:25 328 9 gusting 11 10.6
2019-Jun-15 06:20 329 8 gusting 11 10.6
2019-Jun-15 06:15 329 8 gusting 11 10.6
2019-Jun-15 06:05 327 8 gusting 11 10.6
2019-Jun-15 06:00 329 8 gusting 11 10.6
2019-Jun-15 05:55 331 8 gusting 11 11.1
2019-Jun-15 05:50 331 8 gusting 11 11.1
2019-Jun-15 05:45 328 7 gusting 11 11.1
2019-Jun-15 05:40 326 7 gusting 11 11.1
2019-Jun-15 05:35 328 8 gusting 11 11.1
2019-Jun-15 05:30 330 7 gusting 10 11.1
2019-Jun-15 05:25 329 7 gusting 10 11.1
2019-Jun-15 05:20 328 7 gusting 10 11.1
2019-Jun-15 05:15 329 7 gusting 10 11.1
2019-Jun-15 05:10 330 7 gusting 10 11.1
2019-Jun-15 05:05 330 6 gusting 9 11.1
2019-Jun-15 05:00 330 6 gusting 9 11.1
2019-Jun-15 04:55 330 6 gusting 9 11.1
2019-Jun-15 04:50 328 6 gusting 9 11.1
2019-Jun-15 04:45 328 6 gusting 9 11.1
2019-Jun-15 04:40 326 6 gusting 9 11.1
2019-Jun-15 04:35 324 6 gusting 9 11.1
2019-Jun-15 04:30 322 6 gusting 10 11.1
2019-Jun-15 04:25 319 6 gusting 10 11.1
2019-Jun-15 04:20 319 6 gusting 8 11.1
2019-Jun-15 04:15 320 6 gusting 9 11.1
2019-Jun-15 04:10 323 6 gusting 9 11.1
2019-Jun-15 04:05 326 6 gusting 9 11.7
2019-Jun-15 04:00 328 6 gusting 10 11.7
2019-Jun-15 03:55 328 6 gusting 10 11.7
2019-Jun-15 03:50 326 6 gusting 9 11.7
2019-Jun-15 03:45 325 6 gusting 9 12.2
2019-Jun-15 03:40 325 6 gusting 9 12.2
2019-Jun-15 03:35 324 6 gusting 8 12.2
2019-Jun-15 03:30 322 6 gusting 9 12.8
2019-Jun-15 03:25 325 6 gusting 9 12.8
2019-Jun-15 03:20 330 6 gusting 9 12.8
2019-Jun-15 03:15 331 7 gusting 11 13.3
2019-Jun-15 03:10 332 8 gusting 11 13.3
2019-Jun-15 03:05 333 7 gusting 10 13.3
2019-Jun-15 03:00 337 6 gusting 10 13.9
2019-Jun-15 02:55 338 6 gusting 12 13.9
2019-Jun-15 02:50 337 7 gusting 12 13.3
2019-Jun-15 02:45 337 7 gusting 11 13.3
2019-Jun-15 02:40 335 7 gusting 11 13.3
2019-Jun-15 02:35 333 6 gusting 9 13.9
2019-Jun-15 02:30 332 6 gusting 8 13.9
2019-Jun-15 02:25 332 7 gusting 9 13.9
2019-Jun-15 02:20 333 7 gusting 9 13.9
2019-Jun-15 02:15 334 7 gusting 9 13.9
2019-Jun-15 02:10 334 6 gusting 8 13.9
2019-Jun-15 02:05 334 6 gusting 9 13.9
2019-Jun-15 02:00 335 7 gusting 11 13.9
2019-Jun-15 01:55 334 7 gusting 11 13.9
2019-Jun-15 01:50 333 6 gusting 9 14.4
2019-Jun-15 01:45 332 6 gusting 8 13.9
2019-Jun-15 01:40 334 6 gusting 8 13.9
2019-Jun-15 01:35 337 6 gusting 8 13.9
2019-Jun-15 01:30 339 6 gusting 8 14.4
2019-Jun-15 01:25 340 6 gusting 8 14.4
2019-Jun-15 01:20 342 6 gusting 8 14.4
2019-Jun-15 01:15 342 6 gusting 8 14.4
2019-Jun-15 01:10 336 6 gusting 8 14.4
2019-Jun-15 01:05 329 6 gusting 8 14.4
2019-Jun-15 01:00 328 6 gusting 7 14.4
2019-Jun-15 00:55 327 6 gusting 7 14.4
2019-Jun-15 00:50 327 6 gusting 8 15.0
2019-Jun-15 00:45 328 7 gusting 9 15.6
2019-Jun-15 00:40 327 7 gusting 10 15.6
2019-Jun-15 00:35 326 7 gusting 10 16.7
2019-Jun-15 00:30 323 6 gusting 10 17.2
2019-Jun-15 00:25 320 6 gusting 9 17.2
2019-Jun-15 00:20 321 5 gusting 8 17.8
2019-Jun-15 00:15 327 5 gusting 8 17.8
2019-Jun-15 00:10 327 6 gusting 8 17.2
2019-Jun-15 00:05 327 6 gusting 7 17.2
2019-Jun-15 00:00 326 5 gusting 7 17.2
2019-Jun-14 23:55 327 5 gusting 7 17.2
2019-Jun-14 23:50 328 6 gusting 8 17.2
2019-Jun-14 23:45 330 6 gusting 8 16.7
2019-Jun-14 23:40 330 6 gusting 8 16.7
2019-Jun-14 23:35 329 6 gusting 9 16.7
2019-Jun-14 23:30 327 6 gusting 9 17.2
2019-Jun-14 23:25 326 7 gusting 9 17.2
2019-Jun-14 23:20 324 6 gusting 9 17.2
2019-Jun-14 23:15 322 6 gusting 8 16.7
2019-Jun-14 23:10 322 6 gusting 8 17.2
2019-Jun-14 23:05 321 6 gusting 8 17.8
2019-Jun-14 23:00 320 6 gusting 8 17.2
2019-Jun-14 22:55 320 6 gusting 7 16.7
2019-Jun-14 22:50 321 6 gusting 7 16.1
2019-Jun-14 22:45 321 6 gusting 7 16.1
2019-Jun-14 22:40 320 5 gusting 7 16.7
2019-Jun-14 22:35 320 5 gusting 7 16.7
2019-Jun-14 22:30 320 6 gusting 7 17.2
2019-Jun-14 22:25 320 6 gusting 7 16.7
2019-Jun-14 22:20 320 6 gusting 8 16.7
2019-Jun-14 22:15 320 6 gusting 8 16.1
2019-Jun-14 22:10 318 6 gusting 8 16.1
2019-Jun-14 22:05 317 6 gusting 9 16.1
2019-Jun-14 22:00 317 6 gusting 9 16.1
2019-Jun-14 21:55 317 6 gusting 8 16.7
2019-Jun-14 21:50 317 6 gusting 8 16.7
2019-Jun-14 21:45 316 6 gusting 7 16.7
2019-Jun-14 21:40 317 6 gusting 7 16.7
2019-Jun-14 21:35 317 6 gusting 7 16.7
2019-Jun-14 21:30 317 5 gusting 7 17.2
2019-Jun-14 21:25 316 6 gusting 7 17.2
2019-Jun-14 21:20 316 6 gusting 7 17.2
2019-Jun-14 21:15 318 6 gusting 7 17.2
2019-Jun-14 21:10 321 6 gusting 8 16.7
2019-Jun-14 21:05 319 6 gusting 8 16.1
2019-Jun-14 21:00 317 6 gusting 7 15.6
2019-Jun-14 20:55 317 6 gusting 8 15.6
2019-Jun-14 20:50 317 6 gusting 8 15.6
2019-Jun-14 20:45 318 6 gusting 8 15.6
2019-Jun-14 20:40 319 6 gusting 8 16.1
2019-Jun-14 20:35 319 6 gusting 9 16.1
2019-Jun-14 20:30 320 6 gusting 9 15.6
2019-Jun-14 20:25 320 6 gusting 9 15.6
2019-Jun-14 20:20 319 6 gusting 9 15.0
2019-Jun-14 20:15 317 7 gusting 9 15.0
2019-Jun-14 20:10 317 6 gusting 9 14.4
2019-Jun-14 20:05 317 6 gusting 8 14.4
2019-Jun-14 20:00 317 6 gusting 8 14.4
2019-Jun-14 19:55 317 6 gusting 8 14.4
2019-Jun-14 19:50 316 6 gusting 8 14.4
2019-Jun-14 19:45 316 6 gusting 7 14.4
2019-Jun-14 19:40 317 6 gusting 8 14.4
2019-Jun-14 19:35 316 6 gusting 8 14.4
2019-Jun-14 19:30 315 6 gusting 8 14.4
2019-Jun-14 19:25 313 6 gusting 8 14.4
2019-Jun-14 19:20 313 6 gusting 7 14.4
2019-Jun-14 19:15 312 5 gusting 7 14.4
2019-Jun-14 19:10 311 5 gusting 7 13.9
2019-Jun-14 19:05 311 5 gusting 8 13.9
2019-Jun-14 19:00 310 5 gusting 8 13.9
2019-Jun-14 18:55 311 5 gusting 7 13.3
2019-Jun-14 18:50 310 5 gusting 7 13.3
2019-Jun-14 18:45 311 5 gusting 7 13.3
2019-Jun-14 18:40 311 5 gusting 6 13.3
2019-Jun-14 18:35 311 4 gusting 6 13.3
2019-Jun-14 18:30 311 4 gusting 7 13.3
2019-Jun-14 18:25 311 5 gusting 7 12.8
2019-Jun-14 18:20 311 5 gusting 6 12.8
2019-Jun-14 18:15 311 5 gusting 6 12.8
2019-Jun-14 18:10 311 5 gusting 6 12.2
2019-Jun-14 18:05 310 5 gusting 6 12.8
2019-Jun-14 18:00 309 4 gusting 6 12.8
2019-Jun-14 17:55 308 4 gusting 6 12.2
2019-Jun-14 17:50 308 4 gusting 6 12.8
2019-Jun-14 17:45 308 5 gusting 6 12.8
2019-Jun-14 17:40 307 5 gusting 6 12.2
2019-Jun-14 17:35 304 5 gusting 6 12.2
2019-Jun-14 17:30 304 4 gusting 6 12.2
2019-Jun-14 17:25 304 3 gusting 6 12.2
2019-Jun-14 17:20 304 3 gusting 6 12.2
2019-Jun-14 17:15 304 4 gusting 6 12.2
2019-Jun-14 17:10 304 3 gusting 6 12.2
2019-Jun-14 17:05 304 3 gusting 5 12.2
2019-Jun-14 17:00 304 2 gusting 4 12.2
2019-Jun-14 16:55 304 2 gusting 5 12.2
2019-Jun-14 16:50 304 3 gusting 6 12.2
2019-Jun-14 16:45 308 4 gusting 6 12.2
2019-Jun-14 16:40 318 3 gusting 6 12.2
2019-Jun-14 16:35 327 3 gusting 6 12.2
2019-Jun-14 16:30 329 4 gusting 6 11.7
2019-Jun-14 16:25 329 5 gusting 7 11.7
2019-Jun-14 16:20 329 4 gusting 7 11.7
2019-Jun-14 16:15 329 4 gusting 6 11.1
2019-Jun-14 16:10 329 4 gusting 6 11.1
2019-Jun-14 16:05 329 2 gusting 6 11.1
2019-Jun-14 16:00 328 0 gusting 6 11.1
2019-Jun-14 15:55 329 0 gusting 4 11.1
2019-Jun-14 15:50 329 2 gusting 6 11.1
2019-Jun-14 15:45 329 2 gusting 6 11.1
2019-Jun-14 15:40 328 2 gusting 6 11.1
2019-Jun-14 15:35 329 1 gusting 6 11.1
2019-Jun-14 15:30 328 1 gusting 6 11.1
2019-Jun-14 15:25 329 2 gusting 6 11.1
2019-Jun-14 15:20 328 1 gusting 6 11.1
2019-Jun-14 15:15 328 0 gusting 4 11.1
2019-Jun-14 15:10 328 0 gusting 4 11.1
2019-Jun-14 15:05 328 1 gusting 4 11.1
2019-Jun-14 15:00 328 1 gusting 4 11.1
2019-Jun-14 14:55 328 1 gusting 4 11.1
2019-Jun-14 14:50 328 0 gusting 4 11.1
2019-Jun-14 14:45 328 0 gusting 4 11.1
2019-Jun-14 14:40 328 1 gusting 5 11.1
2019-Jun-14 14:35 329 3 gusting 6 11.1
2019-Jun-14 14:30 329 3 gusting 6 11.1
2019-Jun-14 14:25 329 3 gusting 6 11.1
2019-Jun-14 14:20 326 4 gusting 9 11.1
2019-Jun-14 14:15 324 5 gusting 12 11.1
2019-Jun-14 14:10 325 6 gusting 12 11.1
2019-Jun-14 14:05 327 6 gusting 9 11.1
2019-Jun-14 14:00 324 6 gusting 10 11.1
2019-Jun-14 13:55 319 5 gusting 10 11.1
2019-Jun-14 13:50 324 6 gusting 9 11.1
2019-Jun-14 13:45 329 6 gusting 9 11.1
2019-Jun-14 13:40 329 5 gusting 8 11.1
2019-Jun-14 13:35 329 5 gusting 7 11.1
2019-Jun-14 13:30 329 6 gusting 7 10.6
2019-Jun-14 13:25 328 6 gusting 10 10.6
2019-Jun-14 13:20 323 6 gusting 10 10.6
2019-Jun-14 13:15 316 4 gusting 9 10.6
2019-Jun-14 13:10 314 4 gusting 6 10.6
2019-Jun-14 13:05 313 3 gusting 6 10.6
2019-Jun-14 13:00 311 3 gusting 6 10.6
2019-Jun-14 12:55 308 3 gusting 6 10.6
2019-Jun-14 12:50 308 3 gusting 6 10.6
2019-Jun-14 12:45 308 3 gusting 6 10.6
2019-Jun-14 12:40 308 4 gusting 6 10.6
2019-Jun-14 12:35 308 4 gusting 6 10.6
2019-Jun-14 12:30 308 4 gusting 6 10.6
2019-Jun-14 12:25 307 5 gusting 6 10.6
2019-Jun-14 12:20 307 5 gusting 7 10.6
2019-Jun-14 12:15 306 4 gusting 7 10.6
2019-Jun-14 12:10 301 3 gusting 7 11.1
2019-Jun-14 12:05 292 3 gusting 7 11.1
2019-Jun-14 12:00 294 4 gusting 8 11.1
2019-Jun-14 11:55 296 4 gusting 8 11.1
2019-Jun-14 11:50 295 4 gusting 10 11.1
2019-Jun-14 11:45 298 4 gusting 10 11.1
2019-Jun-14 11:40 302 5 gusting 8 11.1
2019-Jun-14 11:35 304 5 gusting 8 11.1
2019-Jun-14 11:30 305 5 gusting 10 11.1
2019-Jun-14 11:25 297 4 gusting 10 11.1
2019-Jun-14 11:20 294 4 gusting 9 11.1
2019-Jun-14 11:15 303 5 gusting 10 11.1
2019-Jun-14 11:10 306 6 gusting 10 11.1
2019-Jun-14 11:05 304 6 gusting 9 11.1
2019-Jun-14 11:00 301 5 gusting 10 11.1
2019-Jun-14 10:55 299 5 gusting 10 11.1
2019-Jun-14 10:50 303 6 gusting 13 11.1
2019-Jun-14 10:45 305 6 gusting 13 11.1
2019-Jun-14 10:40 301 6 gusting 12 11.1
2019-Jun-14 10:35 301 6 gusting 13 11.1
2019-Jun-14 10:30 303 6 gusting 13 11.1
2019-Jun-14 10:25 301 6 gusting 13 11.1
2019-Jun-14 10:20 300 6 gusting 13 11.1
2019-Jun-14 10:15 297 6 gusting 12 11.1
2019-Jun-14 10:10 297 6 gusting 13 11.1
2019-Jun-14 10:05 299 7 gusting 13 11.1
2019-Jun-14 10:00 303 8 gusting 17 11.1
2019-Jun-14 09:55 306 8 gusting 17 11.1
2019-Jun-14 09:50 306 8 gusting 16 11.1
2019-Jun-14 09:45 303 7 gusting 16 11.1
2019-Jun-14 09:40 299 8 gusting 16 11.1
2019-Jun-14 09:35 300 7 gusting 13 11.1
2019-Jun-14 09:30 303 8 gusting 19 11.1
2019-Jun-14 09:25 300 8 gusting 19 11.1
2019-Jun-14 09:20 298 8 gusting 15 11.1
2019-Jun-14 09:15 294 8 gusting 15 11.1
2019-Jun-14 09:10 291 7 gusting 15 11.1
2019-Jun-14 09:05 295 7 gusting 15 11.1
2019-Jun-14 09:00 289 7 gusting 16 11.1
2019-Jun-14 08:55 283 7 gusting 16 11.1
2019-Jun-14 08:50 279 6 gusting 13 11.1
2019-Jun-14 08:45 275 6 gusting 13 11.1
2019-Jun-14 08:40 287 7 gusting 17 11.1
2019-Jun-14 08:35 293 9 gusting 22 11.1
2019-Jun-14 08:30 287 8 gusting 22 11.1
2019-Jun-14 08:25 279 7 gusting 13 11.1
2019-Jun-14 08:20 280 7 gusting 15 11.1
2019-Jun-14 08:15 283 6 gusting 15 11.1
2019-Jun-14 08:10 280 7 gusting 16 11.1
2019-Jun-14 08:05 280 8 gusting 16 10.6
2019-Jun-14 08:00 279 8 gusting 17 10.6
2019-Jun-14 07:55 280 7 gusting 17 10.6
2019-Jun-14 07:50 281 7 gusting 13 10.6
2019-Jun-14 07:45 286 7 gusting 13 10.6
2019-Jun-14 07:40 294 6 gusting 15 10.6
2019-Jun-14 07:35 297 7 gusting 17 10.6
2019-Jun-14 07:30 291 6 gusting 17 10.6
2019-Jun-14 07:25 286 6 gusting 15 10.6
2019-Jun-14 07:20 290 6 gusting 15 10.6
2019-Jun-14 07:15 282 6 gusting 13 10.6
2019-Jun-14 07:10 280 6 gusting 13 10.6
2019-Jun-14 07:05 291 6 gusting 17 10.6
2019-Jun-14 07:00 295 6 gusting 17 10.6
2019-Jun-14 06:55 290 6 gusting 13 10.6
2019-Jun-14 06:50 281 6 gusting 13 10.6
2019-Jun-14 06:45 283 7 gusting 16 10.6
2019-Jun-14 06:40 292 8 gusting 19 10.6
2019-Jun-14 06:35 293 8 gusting 19 10.6
2019-Jun-14 06:30 287 7 gusting 16 10.6
2019-Jun-14 06:25 291 7 gusting 16 11.1
2019-Jun-14 06:20 288 7 gusting 15 11.1
2019-Jun-14 06:15 276 6 gusting 13 11.1
2019-Jun-14 06:10 270 6 gusting 13 11.1
2019-Jun-14 06:05 273 6 gusting 13 11.1
2019-Jun-14 06:00 275 6 gusting 13 11.1
2019-Jun-14 05:55 270 6 gusting 13 11.1
2019-Jun-14 05:50 271 7 gusting 16 11.1
2019-Jun-14 05:45 282 7 gusting 16 11.1
2019-Jun-14 05:40 293 8 gusting 17 11.1
2019-Jun-14 05:35 295 7 gusting 19 11.1
2019-Jun-14 05:30 290 8 gusting 19 11.1
2019-Jun-14 05:25 290 8 gusting 19 11.1
2019-Jun-14 05:20 293 8 gusting 18 11.1
2019-Jun-14 05:15 295 9 gusting 21 11.1
2019-Jun-14 05:10 300 11 gusting 21 11.1
2019-Jun-14 05:05 305 13 gusting 22 11.1
2019-Jun-14 05:00 306 13 gusting 22 11.1